TGL25C LFKC-LFLL

Flight info

Callsign TGL25C
Flight time 0h 50m
Altitude 30000
Route SODRI G374 DIVUL M622 PIGOS DCT BODRU DCT KOTIT Y42 LASUR Z42 PINED
Aircraft A320/M-SDE3FGHIRWY/LB1

Departure

Time 2026-04-22 14:52
Airport Calvi Sainte Catherine Airport (LFKC)

Arrival

Time 2026-04-22 15:42
Airport Lyon Saint-Exupéry Airport (LFLL)
Time Latitude Longitude Altitude Speed Heading
2026-04-22 14:15 42.52520 8.79077 195 ft 0 kts 301°
2026-04-22 14:43 42.52516 8.79084 195 ft 3 kts 300°
2026-04-22 14:43 42.52507 8.79109 197 ft 3 kts 289°
2026-04-22 14:43 42.52502 8.79134 207 ft 3 kts 266°
2026-04-22 14:43 42.52506 8.79156 206 ft 3 kts 216°
2026-04-22 14:44 42.52513 8.79161 205 ft 0 kts 180°
2026-04-22 14:47 42.52498 8.79161 202 ft 3 kts 180°
2026-04-22 14:47 42.52490 8.79161 194 ft 0 kts 180°
2026-04-22 14:48 42.52482 8.79161 201 ft 3 kts 180°
2026-04-22 14:48 42.52470 8.79162 200 ft 1 kts 177°
2026-04-22 14:48 42.52450 8.79172 200 ft 3 kts 144°
2026-04-22 14:48 42.52439 8.79200 194 ft 8 kts 105°
2026-04-22 14:49 42.52410 8.79308 195 ft 13 kts 151°
2026-04-22 14:49 42.52343 8.79304 193 ft 7 kts 184°
2026-04-22 14:49 42.52289 8.79302 194 ft 10 kts 181°
2026-04-22 14:49 42.52204 8.79301 208 ft 12 kts 180°
2026-04-22 14:50 42.52152 8.79301 204 ft 3 kts 180°
2026-04-22 14:50 42.52144 8.79301 211 ft 4 kts 180°
2026-04-22 14:50 42.52087 8.79277 213 ft 7 kts 205°
2026-04-22 14:50 42.52056 8.79275 205 ft 4 kts 144°
2026-04-22 14:51 42.52087 8.79304 210 ft 9 kts 356°
2026-04-22 14:51 42.52164 8.79302 207 ft 13 kts 359°
2026-04-22 14:51 42.52209 8.79302 201 ft 0 kts 360°
2026-04-22 14:51 42.52321 8.79302 193 ft 51 kts 360°
2026-04-22 14:52 42.52918 8.79294 168 ft 118 kts
2026-04-22 14:52 42.53907 8.79284 325 ft 153 kts 358°
2026-04-22 14:52 42.54952 8.79300 1134 ft 150 kts
2026-04-22 14:52 42.56039 8.79301 1688 ft 166 kts
2026-04-22 14:53 42.57278 8.79277 2164 ft 191 kts 355°
2026-04-22 14:53 42.58532 8.78418 2709 ft 223 kts 314°
2026-04-22 14:53 42.59330 8.76462 3242 ft 252 kts 295°
2026-04-22 14:53 42.60111 8.74224 3991 ft 269 kts 301°
2026-04-22 14:54 42.61157 8.72111 5124 ft 270 kts 308°
2026-04-22 14:54 42.62326 8.70139 6384 ft 264 kts 310°
2026-04-22 14:54 42.63511 8.68252 7550 ft 262 kts 310°
2026-04-22 14:54 42.64691 8.66381 8704 ft 261 kts 309°
2026-04-22 14:55 42.65855 8.64463 9693 ft 266 kts 307°
2026-04-22 14:55 42.66967 8.62401 10438 ft 279 kts 304°
2026-04-22 14:55 42.68111 8.60137 10802 ft 301 kts 303°
2026-04-22 14:55 42.69294 8.57727 11427 ft 310 kts 302°
2026-04-22 14:56 42.70520 8.55290 12228 ft 315 kts 307°
2026-04-22 14:56 42.72076 8.53162 12982 ft 321 kts 319°
2026-04-22 14:56 42.74006 8.51583 13763 ft 329 kts 333°
2026-04-22 14:56 42.76156 8.50438 14402 ft 334 kts 335°
2026-04-22 14:57 42.78334 8.49303 15102 ft 336 kts 335°
2026-04-22 14:57 42.80526 8.48161 15811 ft 338 kts 335°
2026-04-22 14:57 42.82729 8.47011 16511 ft 340 kts 334°
2026-04-22 14:57 42.84944 8.45851 17216 ft 342 kts 334°
2026-04-22 14:58 42.87140 8.44697 17914 ft 344 kts 334°
2026-04-22 14:58 42.89381 8.43515 18592 ft 346 kts 334°
2026-04-22 14:58 42.91630 8.42324 19181 ft 348 kts 334°
2026-04-22 14:58 42.93900 8.41119 19735 ft 352 kts 334°
2026-04-22 14:59 42.96193 8.39902 20312 ft 355 kts 334°
2026-04-22 14:59 42.98470 8.38586 20884 ft 354 kts 328°
2026-04-22 14:59 43.00506 8.36736 21458 ft 351 kts 317°
2026-04-22 14:59 43.02206 8.34352 22005 ft 350 kts 306°
2026-04-22 15:00 43.03512 8.31543 22535 ft 352 kts 297°
2026-04-22 15:00 43.04656 8.28569 23063 ft 354 kts 298°
2026-04-22 15:00 43.05812 8.25580 23608 ft 357 kts 298°
2026-04-22 15:00 43.06983 8.22573 24041 ft 359 kts 298°
2026-04-22 15:01 43.08164 8.19547 24457 ft 362 kts 298°
2026-04-22 15:01 43.09352 8.16496 24871 ft 365 kts 298°
2026-04-22 15:01 43.10547 8.13419 25278 ft 367 kts 297°
2026-04-22 15:01 43.11745 8.10322 25684 ft 370 kts 297°
2026-04-22 15:02 43.12950 8.07199 26089 ft 372 kts 297°
2026-04-22 15:02 43.14161 8.04060 26476 ft 374 kts 297°
2026-04-22 15:02 43.15379 8.00894 26901 ft 377 kts 297°
2026-04-22 15:02 43.16601 7.97712 27304 ft 379 kts 297°
2026-04-22 15:03 43.17831 7.94505 27662 ft 381 kts 297°
2026-04-22 15:03 43.19068 7.91278 28030 ft 384 kts 297°
2026-04-22 15:03 43.20314 7.88029 28403 ft 386 kts 297°
2026-04-22 15:03 43.21568 7.84753 28776 ft 389 kts 297°
2026-04-22 15:04 43.22827 7.81468 29147 ft 391 kts 297°
2026-04-22 15:04 43.24096 7.78159 29514 ft 393 kts 297°
2026-04-22 15:04 43.25371 7.74826 29874 ft 395 kts 297°
2026-04-22 15:04 43.26648 7.71474 30100 ft 396 kts 297°
2026-04-22 15:05 43.27897 7.68193 30125 ft 379 kts 297°
2026-04-22 15:05 43.29163 7.65089 30124 ft 369 kts 303°
2026-04-22 15:05 43.30787 7.62380 30125 ft 368 kts 314°
2026-04-22 15:05 43.32779 7.60171 30124 ft 370 kts 324°
2026-04-22 15:06 43.37282 7.56657 30123 ft 374 kts 327°
2026-04-22 15:06 43.41809 7.53126 30125 ft 374 kts 327°
2026-04-22 15:07 43.46295 7.49616 30125 ft 373 kts 327°
2026-04-22 15:07 43.50809 7.46080 30129 ft 373 kts 327°
2026-04-22 15:08 43.55325 7.42541 30125 ft 373 kts 327°
2026-04-22 15:08 43.59833 7.38997 30154 ft 373 kts 327°
2026-04-22 15:09 43.63784 7.34534 30150 ft 366 kts 308°
2026-04-22 15:09 43.67011 7.29116 30146 ft 365 kts 308°
2026-04-22 15:10 43.70249 7.23720 30145 ft 365 kts 308°
2026-04-22 15:10 43.73488 7.18316 30143 ft 365 kts 308°
2026-04-22 15:11 43.76714 7.12901 30141 ft 364 kts 308°
2026-04-22 15:11 43.79929 7.07496 30131 ft 363 kts 308°
2026-04-22 15:12 43.83138 7.02089 30136 ft 363 kts 308°
2026-04-22 15:12 43.86344 6.96676 30135 ft 363 kts 308°
2026-04-22 15:13 43.89549 6.91258 30144 ft 363 kts 308°
2026-04-22 15:13 43.92749 6.85843 30141 ft 363 kts 308°
2026-04-22 15:14 43.95929 6.80453 30123 ft 364 kts 307°
2026-04-22 15:14 43.99130 6.75008 30123 ft 364 kts 308°
2026-04-22 15:15 44.02331 6.69547 30122 ft 365 kts 308°
2026-04-22 15:15 44.05553 6.64048 30133 ft 364 kts 307°
2026-04-22 15:16 44.08717 6.58646 30135 ft 362 kts 308°
2026-04-22 15:16 44.11892 6.53218 30115 ft 361 kts 307°
2026-04-22 15:17 44.15051 6.47791 30113 ft 361 kts 307°
2026-04-22 15:17 44.18217 6.42342 30086 ft 362 kts 307°
2026-04-22 15:18 44.21378 6.36888 30080 ft 362 kts 307°
2026-04-22 15:18 44.24540 6.31429 30079 ft 361 kts 307°
2026-04-22 15:19 44.27700 6.25968 30104 ft 362 kts 307°
2026-04-22 15:19 44.30853 6.20512 30099 ft 361 kts 307°
2026-04-22 15:20 44.33469 6.15980 30100 ft 361 kts 307°
2026-04-22 15:20 44.36611 6.10523 30095 ft 360 kts 307°
2026-04-22 15:21 44.39750 6.05064 30069 ft 360 kts 307°
2026-04-22 15:21 44.41334 6.02300 30099 ft 371 kts 308°
2026-04-22 15:21 44.42973 5.99435 30101 ft 382 kts 307°
2026-04-22 15:22 44.46368 5.93496 30107 ft 396 kts 308°
2026-04-22 15:22 44.49754 5.87568 29709 ft 381 kts 307°
2026-04-22 15:23 44.51392 5.84693 29165 ft 375 kts 307°
2026-04-22 15:23 44.53013 5.81843 28556 ft 372 kts 308°
2026-04-22 15:23 44.54619 5.79020 27965 ft 367 kts 308°
2026-04-22 15:23 44.56193 5.76250 27031 ft 361 kts 308°
2026-04-22 15:24 44.57746 5.73510 26096 ft 357 kts 308°
2026-04-22 15:24 44.59281 5.70802 25186 ft 352 kts 307°
2026-04-22 15:24 44.60795 5.68128 24333 ft 347 kts 307°
2026-04-22 15:24 44.62267 5.65522 23825 ft 334 kts 307°
2026-04-22 15:25 44.63686 5.63014 23296 ft 322 kts 307°
2026-04-22 15:25 44.65090 5.60638 22827 ft 311 kts 313°
2026-04-22 15:25 44.66779 5.58749 22372 ft 312 kts 327°
2026-04-22 15:25 44.68737 5.57509 21920 ft 315 kts 340°
2026-04-22 15:26 44.70901 5.56943 21472 ft 318 kts 349°
2026-04-22 15:26 44.73096 5.56584 21008 ft 318 kts 349°
2026-04-22 15:26 44.75300 5.56221 20507 ft 320 kts 349°
2026-04-22 15:26 44.77512 5.55856 20046 ft 319 kts 349°
2026-04-22 15:27 44.79713 5.55491 19608 ft 318 kts 349°
2026-04-22 15:27 44.81910 5.55128 19144 ft 318 kts 349°
2026-04-22 15:27 44.84109 5.54763 18713 ft 319 kts 349°
2026-04-22 15:27 44.86315 5.54395 18256 ft 319 kts 349°
2026-04-22 15:28 44.88516 5.54029 17761 ft 318 kts 349°
2026-04-22 15:28 44.90702 5.53665 17331 ft 315 kts 349°
2026-04-22 15:28 44.92873 5.53304 16898 ft 313 kts 349°
2026-04-22 15:28 44.95026 5.52946 16486 ft 310 kts 349°
2026-04-22 15:29 44.97165 5.52590 16069 ft 309 kts 349°
2026-04-22 15:29 44.99303 5.52234 15677 ft 309 kts 350°
2026-04-22 15:29 45.01461 5.52103 15278 ft 311 kts 356°
2026-04-22 15:30 45.05779 5.52076 14497 ft 310 kts 356°
2026-04-22 15:30 45.07933 5.52057 14119 ft 309 kts 356°
2026-04-22 15:30 45.10074 5.52037 13751 ft 305 kts 356°
2026-04-22 15:30 45.12192 5.52022 13305 ft 303 kts 356°
2026-04-22 15:31 45.14295 5.52005 12921 ft 301 kts 356°
2026-04-22 15:31 45.16363 5.51984 12664 ft 294 kts 356°
2026-04-22 15:31 45.18355 5.51966 12412 ft 287 kts 356°
2026-04-22 15:31 45.20345 5.51946 12149 ft 285 kts 357°
2026-04-22 15:32 45.22321 5.51924 11888 ft 284 kts 357°
2026-04-22 15:32 45.24294 5.51901 11630 ft 283 kts 357°
2026-04-22 15:32 45.26260 5.51876 11368 ft 283 kts 357°
2026-04-22 15:32 45.28221 5.51711 11113 ft 281 kts 348°
2026-04-22 15:33 45.30116 5.51041 10841 ft 281 kts 343°
2026-04-22 15:33 45.32001 5.50319 10574 ft 281 kts 343°
2026-04-22 15:33 45.33865 5.49504 10309 ft 280 kts 335°
2026-04-22 15:33 45.35499 5.48046 10038 ft 278 kts 318°
2026-04-22 15:34 45.36749 5.45967 9642 ft 278 kts 301°
2026-04-22 15:34 45.37541 5.43475 9248 ft 276 kts 292°
2026-04-22 15:34 45.38239 5.40946 8858 ft 274 kts 292°
2026-04-22 15:34 45.38940 5.38438 8489 ft 272 kts 292°
2026-04-22 15:35 45.39640 5.35947 8114 ft 271 kts 292°
2026-04-22 15:35 45.40338 5.33460 7735 ft 270 kts 292°
2026-04-22 15:35 45.40948 5.31289 7408 ft 268 kts 292°
2026-04-22 15:35 45.41649 5.28806 7034 ft 270 kts 292°
2026-04-22 15:36 45.42348 5.26326 6680 ft 269 kts 292°
2026-04-22 15:36 45.43039 5.23862 6300 ft 268 kts 292°
2026-04-22 15:36 45.43731 5.21393 5918 ft 267 kts 291°
2026-04-22 15:36 45.44414 5.18946 5605 ft 263 kts 291°
2026-04-22 15:37 45.45073 5.16587 5470 ft 250 kts 291°
2026-04-22 15:37 45.45826 5.14419 5317 ft 241 kts 306°
2026-04-22 15:37 45.47056 5.12858 5167 ft 236 kts 330°
2026-04-22 15:37 45.48556 5.12161 5039 ft 227 kts 353°
2026-04-22 15:38 45.50128 5.11980 4906 ft 227 kts 356°
2026-04-22 15:38 45.53260 5.11640 4337 ft 225 kts 355°
2026-04-22 15:38 45.54818 5.11452 4042 ft 224 kts 355°
2026-04-22 15:39 45.56379 5.11263 3742 ft 226 kts 355°
2026-04-22 15:39 45.57951 5.11073 3440 ft 227 kts 355°
2026-04-22 15:39 45.59507 5.10884 3134 ft 219 kts 355°
2026-04-22 15:39 45.60984 5.10706 2864 ft 205 kts 355°
2026-04-22 15:40 45.62358 5.10540 2584 ft 192 kts 354°
2026-04-22 15:40 45.63644 5.10384 2337 ft 179 kts 355°
2026-04-22 15:40 45.64821 5.10241 2108 ft 161 kts 355°
2026-04-22 15:40 45.65892 5.10111 1886 ft 149 kts 355°
2026-04-22 15:41 45.66902 5.09988 1698 ft 143 kts 355°
2026-04-22 15:41 45.67878 5.09870 1506 ft 140 kts 355°
2026-04-22 15:41 45.68843 5.09752 1322 ft 138 kts 356°
2026-04-22 15:41 45.69797 5.09637 1132 ft 137 kts 356°
2026-04-22 15:42 45.70749 5.09520 954 ft 137 kts 355°
2026-04-22 15:42 45.71683 5.09415 824 ft 126 kts 355°
2026-04-22 15:42 45.72387 5.09323 813 ft 77 kts 355°
2026-04-22 15:42 45.72746 5.09256 803 ft 43 kts 341°
2026-04-22 15:43 45.72910 5.09124 799 ft 10 kts 323°
2026-04-22 15:43 45.72920 5.09113 799 ft 3 kts 323°
2026-04-22 15:43 45.72945 5.09086 797 ft 0 kts 323°
2026-04-22 15:43 45.72946 5.09085 797 ft 1 kts 323°
2026-04-22 15:44 45.72958 5.09066 796 ft 4 kts 305°
2026-04-22 15:44 45.72968 5.08964 793 ft 15 kts 269°
2026-04-22 15:44 45.72960 5.08803 792 ft 17 kts 265°
2026-04-22 15:44 45.72949 5.08625 792 ft 18 kts 265°
2026-04-22 15:45 45.72941 5.08476 790 ft 13 kts 263°
2026-04-22 15:45 45.72895 5.08376 790 ft 12 kts 215°
2026-04-22 15:45 45.72826 5.08358 791 ft 9 kts 176°
2026-04-22 15:45 45.72768 5.08364 791 ft 8 kts 175°
2026-04-22 15:46 45.72720 5.08369 791 ft 7 kts 176°
2026-04-22 15:46 45.72677 5.08373 791 ft 7 kts 175°
2026-04-22 15:46 45.72620 5.08381 793 ft 9 kts 174°
2026-04-22 15:46 45.72550 5.08390 796 ft 11 kts 175°
2026-04-22 15:47 45.72466 5.08400 796 ft 13 kts 176°
2026-04-22 15:47 45.72370 5.08411 798 ft 14 kts 174°
2026-04-22 15:47 45.72284 5.08423 799 ft 11 kts 174°
2026-04-22 15:47 45.72211 5.08433 800 ft 10 kts 174°
2026-04-22 15:48 45.72149 5.08440 802 ft 9 kts 176°
2026-04-22 15:48 45.72084 5.08446 803 ft 10 kts 175°
2026-04-22 15:48 45.72011 5.08456 802 ft 11 kts 175°
2026-04-22 15:48 45.71937 5.08465 802 ft 10 kts 175°
2026-04-22 15:49 45.71869 5.08474 802 ft 9 kts 175°
2026-04-22 15:49 45.71806 5.08482 802 ft 9 kts 175°
2026-04-22 15:49 45.71749 5.08488 802 ft 8 kts 175°
2026-04-22 15:49 45.71699 5.08465 802 ft 8 kts 220°
2026-04-22 15:50 45.71682 5.08384 800 ft 10 kts 263°
2026-04-22 15:50 45.71677 5.08325 800 ft 4 kts 263°
2026-04-22 15:50 45.71669 5.08305 800 ft 2 kts 228°
2026-04-22 15:50 45.71652 5.08293 801 ft 3 kts 202°
2026-04-22 15:51 45.71636 5.08285 801 ft 2 kts 197°
2026-04-22 15:51 45.71617 5.08277 802 ft 3 kts 197°
2026-04-22 15:51 45.71598 5.08269 802 ft 2 kts 195°
2026-04-22 15:51 45.71592 5.08267 802 ft 0 kts 195°